FW3687 Weather Reports


Display with metric or nautical units.
time (UTC)temp
F
wind
direction
speed
MPH
gust
MPH
rain 1hr
in
rain 24hr
in
rain mn
in
humidity
%
barometer
mb
20260507054051 51 15 0.0 2.0 0.00 0.00 0.00 52 1019.2
20260507053551 51 15 1.0 2.0 0.00 0.00 0.00 52 1019.2
20260507053051 52 15 0.0 1.0 0.00 0.00 0.00 52 1019.1
20260507052551 52 15 0.0 1.0 0.00 0.00 0.00 52 1019.2
20260507052051 52 15 0.0 0.0 0.00 0.00 0.00 51 1019.1
20260507051551 53 15 0.0 0.0 0.00 0.00 0.00 49 1019.0
20260507051051 53 15 0.0 1.0 0.00 0.00 0.00 49 1019.0
20260507050551 53 15 0.0 1.0 0.00 0.00 0.00 48 1019.0
20260507045550 53 15 0.0 1.0 0.00 0.00 0.00 48 1018.9
20260507045050 53 15 0.0 1.0 0.00 0.00 0.00 48 1018.9
20260507044551 53 15 0.0 2.0 0.00 0.00 0.00 49 1019.0
20260507044051 53 15 1.0 2.0 0.00 0.00 0.00 49 1019.1
20260507041552 53 14 0.0 0.0 0.00 0.00 0.00 49 1018.9
20260507041051 54 14 0.0 1.0 0.00 0.00 0.00 48 1019.0
20260507040551 54 14 0.0 1.0 0.00 0.00 0.00 48 1018.9
20260507040051 54 14 0.0 2.0 0.00 0.00 0.00 48 1019.1
20260507035551 54 15 0.0 1.0 0.00 0.00 0.00 48 1019.2
20260507035051 54 15 0.0 2.0 0.00 0.00 0.00 48 1019.1
20260507034551 54 15 1.0 2.0 0.00 0.00 0.00 47 1018.9
20260507033551 55 15 0.0 1.0 0.00 0.00 0.00 46 1018.9
20260507033051 55 15 0.0 1.0 0.00 0.00 0.00 47 1018.9
20260507032551 55 15 0.0 1.0 0.00 0.00 0.00 46 1018.8
20260507032051 55 15 0.0 2.0 0.00 0.00 0.00 46 1018.8
20260507031551 55 13 0.0 2.0 0.00 0.00 0.00 46 1018.8
20260507031051 55 14 0.0 3.0 0.00 0.00 0.00 45 1018.8
20260507030551 56 17 1.0 4.0 0.00 0.00 0.00 45 1018.6
20260507030051 56 38 2.0 3.0 0.00 0.00 0.00 45 1018.6
20260507025551 56 18 0.0 4.0 0.00 0.00 0.00 45 1018.7
20260507025051 56 334 0.0 4.0 0.00 0.00 0.00 45 1018.6
20260507024551 56 360 1.0 2.0 0.00 0.00 0.00 45 1018.4
20260507023551 57 355 1.0 5.0 0.00 0.00 0.00 44 1018.4
20260507023051 56 360 1.0 6.0 0.00 0.00 0.00 44 1018.4
20260507022051 57 5 0.0 3.0 0.00 0.00 0.00 45 1018.2
20260507021551 57 9 0.0 2.0 0.00 0.00 0.00 45 1018.3
20260507021051 57 5 0.0 2.0 0.00 0.00 0.00 45 1018.2
20260507020550 57 5 1.0 1.0 0.00 0.00 0.00 44 1018.1
20260507020052 57 5 0.0 2.0 0.00 0.00 0.00 44 1018.2
20260507015051 58 22 0.0 2.0 0.00 0.00 0.00 43 1018.0
20260507014551 58 20 0.0 1.0 0.00 0.00 0.00 42 1017.9
20260507013551 59 20 0.0 0.0 0.00 0.00 0.00 41 1017.9
20260507013051 59 20 0.0 1.0 0.00 0.00 0.00 40 1017.8
20260507012551 59 20 0.0 1.0 0.00 0.00 0.00 40 1017.7
20260507012050 59 20 0.0 0.0 0.00 0.00 0.00 40 1017.5
20260507011051 60 20 0.0 1.0 0.00 0.00 0.00 38 1017.5
20260507010551 60 20 0.0 1.0 0.00 0.00 0.00 38 1017.5
20260507010052 60 20 0.0 1.0 0.00 0.00 0.00 38 1017.5
20260507005551 61 20 0.0 2.0 0.00 0.00 0.00 37 1017.4
20260507005050 61 15 0.0 2.0 0.00 0.00 0.00 37 1017.4
20260507004051 61 10 1.0 4.0 0.00 0.00 0.00 37 1017.2
20260507003550 61 20 0.0 3.0 0.00 0.00 0.00 36 1017.1
20260507003051 61 355 0.0 4.0 0.00 0.00 0.00 36 1017.2
20260507002551 62 15 0.0 5.0 0.00 0.00 0.00 36 1017.1
20260507002050 62 355 3.0 5.0 0.00 0.00 0.00 35 1017.1
20260507001552 62 332 0.0 5.0 0.00 0.00 0.00 35 1017.0
20260507001051 62 5 0.0 3.0 0.00 0.00 0.00 35 1017.0
20260507000550 62 355 0.0 6.0 0.00 0.00 0.00 35 1017.0
20260507000051 62 355 1.0 6.0 0.00 0.00 0.00 35 1016.9
20260506235552 63 270 0.0 4.0 0.00 0.00 0.00 35 1016.9
20260506235050 63 168 0.0 4.0 0.00 0.00 0.00 35 1016.9
20260506234551 63 40 3.0 5.0 0.00 0.00 0.00 36 1017.0
20260506234051 63 340 4.0 4.0 0.00 0.00 0.00 36 1016.9
20260506233051 63 88 1.0 3.0 0.00 0.00 0.00 36 1016.9
20260506232051 63 25 1.0 4.0 0.00 0.00 0.00 38 1016.8
20260506231551 63 30 0.0 4.0 0.00 0.00 0.00 37 1016.8
20260506231051 63 36 3.0 5.0 0.00 0.00 0.00 36 1016.6
20260506230551 63 34 2.0 6.0 0.00 0.00 0.00 35 1016.7
20260506230051 63 324 4.0 13.0 0.00 0.00 0.00 35 1016.6
20260506225051 63 142 1.0 4.0 0.00 0.00 0.00 37 1016.6
20260506224551 63 150 2.0 5.0 0.00 0.00 0.00 37 1016.5
20260506224050 63 340 0.0 8.0 0.00 0.00 0.00 36 1016.4
20260506223551 63 349 0.0 8.0 0.00 0.00 0.00 36 1016.4
20260506223052 64 49 4.0 5.0 0.00 0.00 0.00 36 1016.3
20260506222551 63 350 0.0 5.0 0.00 0.00 0.00 38 1016.2
20260506222051 63 15 0.0 9.0 0.00 0.00 0.00 36 1016.3
20260506221551 63 5 0.0 9.0 0.00 0.00 0.00 35 1016.3
20260506221051 63 91 3.0 6.0 0.00 0.00 0.00 36 1016.3
20260506220550 63 55 0.0 6.0 0.00 0.00 0.00 35 1016.2
20260506215550 63 338 1.0 12.0 0.00 0.00 0.00 35 1016.2
20260506215052 63 97 0.0 8.0 0.00 0.00 0.00 36 1016.1
20260506214551 63 323 2.0 12.0 0.00 0.00 0.00 36 1016.1
20260506214052 64 360 6.0 11.0 0.00 0.00 0.00 35 1016.2
20260506213551 65 313 1.0 13.0 0.00 0.00 0.00 34 1016.2
20260506212550 64 9 3.0 12.0 0.00 0.00 0.00 35 1016.3
20260506212050 64 119 1.0 12.0 0.00 0.00 0.00 36 1016.2
20260506211552 64 348 4.0 11.0 0.00 0.00 0.00 36 1016.3
20260506211050 63 30 9.0 10.0 0.00 0.00 0.00 38 1016.1
20260506210052 63 32 2.0 11.0 0.00 0.00 0.00 37 1016.2
20260506205550 63 30 5.0 10.0 0.00 0.00 0.00 37 1016.4
20260506205050 63 343 3.0 10.0 0.00 0.00 0.00 38 1016.4
20260506204551 63 182 2.0 10.0 0.00 0.00 0.00 38 1016.5
20260506204050 63 24 3.0 9.0 0.00 0.00 0.00 38 1016.6
20260506203551 63 72 0.0 7.0 0.00 0.00 0.00 39 1016.6
20260506203052 62 302 3.0 10.0 0.00 0.00 0.00 39 1016.9
20260506202551 62 38 3.0 10.0 0.00 0.00 0.00 39 1016.9
20260506202050 62 46 0.0 8.0 0.00 0.00 0.00 40 1016.9
20260506201552 62 192 1.0 11.0 0.00 0.00 0.00 39 1017.0
20260506201051 62 71 2.0 11.0 0.00 0.00 0.00 39 1017.1
20260506200551 63 10 3.0 9.0 0.00 0.00 0.00 40 1017.1
20260506200051 63 46 0.0 9.0 0.00 0.00 0.00 39 1017.1
20260506195051 63 5 1.0 9.0 0.00 0.00 0.00 40 1016.9
20260506194551 63 322 1.0 9.0 0.00 0.00 0.00 39 1017.0
20260506193550 62 300 1.0 10.0 0.00 0.00 0.00 42 1016.9
20260506193052 62 38 2.0 8.0 0.00 0.00 0.00 40 1017.0
20260506192550 63 96 1.0 7.0 0.00 0.00 0.00 40 1017.0
20260506192051 63 346 4.0 7.0 0.00 0.00 0.00 39 1017.1
20260506191551 63 5 0.0 7.0 0.00 0.00 0.00 40 1017.2
20260506191051 63 5 4.0 8.0 0.00 0.00 0.00 39 1017.3
20260506190052 61 350 2.0 6.0 0.00 0.00 0.00 42 1017.6
20260506185551 61 78 1.0 5.0 0.00 0.00 0.00 40 1017.7
20260506184551 62 26 0.0 3.0 0.00 0.00 0.00 39 1017.7
20260506184051 62 88 1.0 4.0 0.00 0.00 0.00 39 1017.6
20260506183051 63 36 0.0 6.0 0.00 0.00 0.00 40 1017.8
20260506182050 63 83 0.0 4.0 0.00 0.00 0.00 40 1017.8
20260506181551 63 18 0.0 6.0 0.00 0.00 0.00 39 1017.8
20260506180551 63 123 1.0 8.0 0.00 0.00 0.00 40 1018.0
20260506180051 62 23 1.0 8.0 0.00 0.00 0.00 39 1017.9
20260506175551 62 33 0.0 5.0 0.00 0.00 0.00 40 1018.0
20260506175051 63 15 2.0 5.0 0.00 0.00 0.00 40 1017.9
20260506174551 63 106 0.0 5.0 0.00 0.00 0.00 41 1018.0
20260506174051 63 151 1.0 5.0 0.00 0.00 0.00 40 1018.3
20260506173551 62 170 0.0 5.0 0.00 0.00 0.00 40 1018.3
20260506173051 61 342 0.0 5.0 0.00 0.00 0.00 42 1018.3
20260506172551 61 134 0.0 5.0 0.00 0.00 0.00 41 1018.5
20260506172051 60 143 0.0 6.0 0.00 0.00 0.00 42 1018.6
20260506171551 60 142 0.0 9.0 0.00 0.00 0.00 43 1018.8
20260506171050 60 164 4.0 9.0 0.00 0.00 0.00 42 1018.9
20260506170550 60 137 0.0 5.0 0.00 0.00 0.00 41 1019.2
20260506165553 59 126 0.0 10.0 0.00 0.00 0.00 42 1019.5
20260506165050 59 145 3.0 10.0 0.00 0.00 0.00 42 1019.4
20260506164550 58 78 2.0 8.0 0.00 0.00 0.00 43 1019.5
20260506164050 58 64 0.0 5.0 0.00 0.00 0.00 44 1019.3
20260506163550 57 68 0.0 9.0 0.00 0.00 0.00 45 1019.1
20260506163051 57 41 2.0 11.0 0.00 0.00 0.00 45 1019.0
20260506162550 57 307 7.0 11.0 0.00 0.00 0.00 46 1018.9
20260506162051 57 292 0.0 11.0 0.00 0.00 0.00 45 1019.1
20260506161050 57 323 3.0 11.0 0.00 0.00 0.00 45 1019.0
20260506160550 57 341 2.0 15.0 0.00 0.00 0.00 45 1018.9
20260506160052 57 97 2.0 15.0 0.00 0.00 0.00 46 1018.8
20260506155550 57 355 1.0 8.0 0.00 0.00 0.00 45 1018.4
20260506155051 57 360 3.0 8.0 0.00 0.00 0.00 46 1018.4
20260506154551 57 127 0.0 8.0 0.00 0.00 0.00 46 1018.3
20260506153551 56 165 1.0 4.0 0.00 0.00 0.00 47 1018.0
20260506153051 56 177 2.0 5.0 0.00 0.00 0.00 48 1017.9
20260506152551 55 150 0.0 4.0 0.00 0.00 0.00 48 1017.6
20260506151551 54 138 1.0 5.0 0.00 0.00 0.00 48 1017.5
20260506151050 54 118 0.0 11.0 0.00 0.00 0.00 48 1017.3
20260506150551 54 146 9.0 11.0 0.00 0.00 0.00 49 1017.4
20260506150051 54 138 1.0 5.0 0.00 0.00 0.00 48 1017.4
20260506145550 54 69 1.0 8.0 0.00 0.00 0.00 49 1017.4
20260506145051 54 321 2.0 8.0 0.00 0.00 0.00 49 1017.5
20260506144550 53 330 4.0 8.0 0.00 0.00 0.00 49 1017.4
20260506144051 53 355 0.0 8.0 0.00 0.00 0.00 50 1017.4
20260506143051 52 102 1.0 5.0 0.00 0.00 0.00 50 1017.4
20260506142550 52 119 4.0 5.0 0.00 0.00 0.00 50 1017.3
20260506142050 52 45 2.0 12.0 0.00 0.00 0.00 51 1017.3
20260506141551 51 89 3.0 9.0 0.00 0.00 0.00 51 1017.4
20260506140550 51 315 2.0 7.0 0.00 0.00 0.00 52 1017.6
20260506140051 51 109 2.0 7.0 0.00 0.00 0.00 52 1017.5
20260506135551 51 9 1.0 6.0 0.00 0.00 0.00 52 1017.4
20260506135051 51 5 2.0 5.0 0.00 0.00 0.00 52 1017.3
20260506134551 50 5 1.0 8.0 0.00 0.00 0.00 53 1017.3
20260506134050 50 36 2.0 11.0 0.00 0.00 0.00 53 1017.6
20260506133550 50 17 5.0 11.0 0.00 0.00 0.00 53 1017.7
20260506133051 50 309 3.0 9.0 0.00 0.00 0.00 54 1017.5
20260506132050 50 47 0.0 7.0 0.00 0.00 0.00 54 1017.6
20260506131551 50 15 2.0 5.0 0.00 0.00 0.00 55 1017.4
20260506131050 49 5 1.0 8.0 0.00 0.00 0.00 55 1017.5
20260506130550 49 57 0.0 8.0 0.00 0.00 0.00 55 1017.3
20260506130050 49 42 1.0 6.0 0.00 0.00 0.00 55 1017.3
20260506125550 49 64 1.0 6.0 0.00 0.00 0.00 56 1017.2
20260506125051 49 40 2.0 8.0 0.00 0.00 0.00 56 1017.3
20260506123051 49 5 1.0 11.0 0.00 0.00 0.00 56 1017.3
20260506122550 49 331 0.0 12.0 0.00 0.00 0.00 56 1017.0
20260506121551 49 5 3.0 14.0 0.00 0.00 0.00 56 1017.0
20260506121050 49 81 0.0 9.0 0.00 0.00 0.00 56 1016.5
20260506120550 49 26 0.0 15.0 0.00 0.00 0.00 56 1016.5
20260506120051 49 49 2.0 15.0 0.00 0.00 0.00 56 1016.5
20260506115551 49 98 1.0 12.0 0.00 0.00 0.00 57 1016.7
20260506115049 49 360 1.0 9.0 0.00 0.00 0.00 57 1016.5
20260506114550 49 344 3.0 7.0 0.00 0.00 0.00 57 1016.6
20260506114049 49 324 2.0 6.0 0.00 0.00 0.00 57 1016.7
20260506113550 49 17 1.0 8.0 0.00 0.00 0.00 56 1016.7
20260506113050 49 89 1.0 8.0 0.00 0.00 0.00 56 1016.5
20260506112551 49 347 0.0 8.0 0.00 0.00 0.00 55 1016.5
20260506112050 49 42 1.0 10.0 0.00 0.00 0.00 55 1016.5
20260506111551 49 80 1.0 10.0 0.00 0.00 0.00 54 1016.5
20260506111050 49 312 9.0 13.0 0.00 0.00 0.00 54 1016.5
20260506110550 49 11 4.0 13.0 0.00 0.00 0.00 54 1016.4
20260506110050 49 342 0.0 11.0 0.00 0.00 0.00 54 1016.3
20260506105050 50 351 2.0 9.0 0.00 0.00 0.00 54 1016.0
20260506104550 50 290 1.0 11.0 0.00 0.00 0.00 54 1016.1
20260506103549 50 5 1.0 10.0 0.00 0.00 0.00 54 1015.8
20260506103050 50 5 2.0 8.0 0.00 0.00 0.00 54 1015.6
20260506102549 50 11 0.0 9.0 0.00 0.00 0.00 54 1015.6
20260506102050 50 108 1.0 9.0 0.00 0.00 0.00 54 1015.7
20260506101050 50 5 0.0 6.0 0.00 0.00 0.00 54 1015.7
20260506100550 50 316 0.0 8.0 0.00 0.00 0.00 54 1015.7
20260506100050 50 313 3.0 6.0 0.00 0.00 0.00 54 1015.5
20260506095551 50 49 0.0 8.0 0.00 0.00 0.00 54 1015.5
20260506095050 50 13 4.0 8.0 0.00 0.00 0.00 54 1015.5
20260506094551 50 20 1.0 7.0 0.00 0.00 0.00 54 1015.5
20260506094050 50 338 0.0 7.0 0.00 0.00 0.00 54 1015.2
20260506093051 50 319 2.0 10.0 0.00 0.00 0.00 54 1014.7
20260506092551 50 310 3.0 10.0 0.00 0.00 0.00 53 1014.7
20260506091551 50 349 1.0 11.0 0.00 0.00 0.00 53 1014.4
20260506090551 50 360 1.0 8.0 0.00 0.00 0.00 54 1013.8
20260506090050 50 355 4.0 6.0 0.00 0.00 0.00 54 1013.8
20260506085550 50 321 4.0 9.0 0.00 0.00 0.00 54 1013.6
20260506085050 50 5 1.0 9.0 0.00 0.00 0.00 54 1013.6
20260506084551 50 30 2.0 10.0 0.00 0.00 0.00 53 1013.6
20260506084050 50 306 0.0 10.0 0.00 0.00 0.00 53 1013.7
20260506083050 50 339 0.0 9.0 0.00 0.00 0.00 53 1013.5
20260506082550 50 348 0.0 9.0 0.00 0.00 0.00 53 1013.2
20260506081550 50 5 0.0 6.0 0.00 0.00 0.00 53 1013.3
20260506081051 50 5 0.0 5.0 0.00 0.00 0.00 53 1013.2
20260506080550 50 5 0.0 5.0 0.00 0.00 0.00 53 1013.1
20260506072550 50 22 1.0 8.0 0.00 0.00 0.00 52 1013.2
20260506072050 50 34 0.0 8.0 0.00 0.00 0.00 52 1013.3
20260506071550 50 346 2.0 6.0 0.00 0.00 0.00 52 1013.6
20260506071050 50 46 3.0 8.0 0.00 0.00 0.00 52 1013.6
20260506062050 50 39 2.0 8.0 0.00 0.00 0.00 52 1013.0
20260506061551 50 24 5.0 10.0 0.00 0.00 0.00 52 1013.1
20260506060550 50 53 0.0 11.0 0.00 0.00 0.00 52 1012.9